Вернуться в каталог

IABS R/B

АктивенMEO
NORAD 21877·ROCKET BODY·🇺🇸 United States

Запущен Feb 11, 1992 с Cape Canaveral Space Force Station

Loading…

Ближайшие Пролёты (ближайшие 24 часа)

TLE

СвежийSource: Space-Track

Эпоха: Sep 14, 2026, 11:17 UTC

1 21877U 92006C   26257.47073647 -.00000117  00000-0  00000-0 0  9992
2 21877   7.3544 320.9146 0659846 106.3234 260.9644  1.10786938 28860

Отслеживайте IABS R/B в реальном времени с AllMySat

Download on the App Store